When you browse on this site, cookies collect data to enhance your experience and personalize the content and advertising you see.
Visit our Privacy Policy to learn more. By continuing to use the site, you agree to this use of cookies and data.
  • In Deutschland
  • Länderverzeichnis
  • Für 7 Tage
  • Wassertemperatur
  • Satellitenkarten
  • Wetterkarte
  • Widgets
  • user-avatar
    Anmelden

    Stündliche Wetter Tatninov

    Heute, 18 November, Sonntag

    Zeit Temperatur Niederschläge Wind Luftdruck Luftfeuchtigkeit
    00:00 -4°C° 0 mm 2 m/S 768 mmHg 83%
    01:00 -4°C° 0 mm 2 m/S 768 mmHg 83%
    02:00 -4°C° 0 mm 2 m/S 767 mmHg 84%
    03:00 -4°C° 0 mm 2 m/S 767 mmHg 85%
    04:00 -4°C° 0 mm 2 m/S 767 mmHg 85%
    05:00 -2°C° 0 mm 1 m/S 767 mmHg 86%
    06:00 -2°C° 0 mm 1 m/S 766 mmHg 86%
    07:00 -1°C° 0 mm 1 m/S 766 mmHg 86%
    08:00 -1°C° 0 mm 1 m/S 766 mmHg 86%
    09:00 0°C° 0 mm 1 m/S 766 mmHg 84%
    10:00 0°C° 0 mm 1 m/S 766 mmHg 85%
    11:00 +1°C° 0 mm 1 m/S 766 mmHg 86%
    12:00 +1°C° 0 mm 1 m/S 766 mmHg 87%
    13:00 0°C° 0 mm 0 m/S 766 mmHg 89%
    14:00 +1°C° 0 mm 0 m/S 766 mmHg 91%
    15:00 0°C° 0 mm 0 m/S 765 mmHg 85%
    16:00 0°C° 0 mm 0 m/S 766 mmHg 86%
    17:00 -1°C° 0 mm 0 m/S 766 mmHg 86%
    18:00 -2°C° 0 mm 0 m/S 766 mmHg 86%
    19:00 -2°C° 0 mm 0 m/S 766 mmHg 86%
    20:00 -1°C° 0 mm 1 m/S 766 mmHg 86%
    21:00 -1°C° 0 mm 1 m/S 766 mmHg 86%
    22:00 -1°C° 0 mm 1 m/S 766 mmHg 87%
    23:00 -1°C° 0 mm 1 m/S 766 mmHg 87%

    Morgen, 19 November, Montag

    Zeit Temperatur Niederschläge Wind Luftdruck Luftfeuchtigkeit
    00:00 -1°C° 0 mm 1 m/S 766 mmHg 88%
    01:00 -2°C° 0 mm 1 m/S 766 mmHg 88%
    02:00 -2°C° 0 mm 1 m/S 766 mmHg 89%
    03:00 -2°C° 0 mm 1 m/S 766 mmHg 89%
    04:00 -2°C° 0 mm 1 m/S 766 mmHg 90%
    05:00 -2°C° 0 mm 1 m/S 766 mmHg 90%
    06:00 -4°C° 0 mm 2 m/S 766 mmHg 90%
    07:00 -4°C° 0 mm 2 m/S 766 mmHg 90%
    08:00 -3°C° 0 mm 2 m/S 766 mmHg 90%
    09:00 -4°C° 0 mm 3 m/S 766 mmHg 89%
    10:00 -2°C° 0 mm 3 m/S 766 mmHg 89%
    11:00 -1°C° 0 mm 3 m/S 766 mmHg 88%
    12:00 0°C° 0 mm 3 m/S 766 mmHg 88%
    13:00 0°C° 0 mm 3 m/S 766 mmHg 87%
    14:00 +1°C° 0 mm 3 m/S 765 mmHg 86%
    15:00 +1°C° 0 mm 3 m/S 765 mmHg 84%
    16:00 0°C° 0 mm 3 m/S 765 mmHg 83%
    17:00 0°C° 0 mm 3 m/S 765 mmHg 82%
    18:00 -1°C° 0 mm 3 m/S 765 mmHg 81%
    19:00 -1°C° 0 mm 3 m/S 765 mmHg 81%
    20:00 -2°C° 0 mm 4 m/S 764 mmHg 80%
    21:00 -1°C° 0 mm 4 m/S 764 mmHg 80%
    22:00 -1°C° 0 mm 4 m/S 764 mmHg 81%
    23:00 -1°C° 0 mm 4 m/S 764 mmHg 82%

    übermorgen, 20 November, Dienstag

    Zeit Temperatur Niederschläge Wind Luftdruck Luftfeuchtigkeit
    00:00 -1°C° 0 mm 4 m/S 763 mmHg 83%
    01:00 -1°C° 0.2 mm 4 m/S 763 mmHg 85%
    02:00 -1°C° 0.2 mm 4 m/S 763 mmHg 86%
    03:00 -1°C° 0.2 mm 4 m/S 763 mmHg 88%
    04:00 0°C° 0.4 mm 4 m/S 762 mmHg 89%
    05:00 0°C° 0.4 mm 5 m/S 762 mmHg 90%
    06:00 0°C° 0.4 mm 5 m/S 762 mmHg 91%
    07:00 0°C° 0.5 mm 5 m/S 761 mmHg 93%
    08:00 0°C° 0.5 mm 5 m/S 761 mmHg 94%
    09:00 0°C° 0.5 mm 5 m/S 761 mmHg 95%
    10:00 0°C° 1.8 mm 5 m/S 761 mmHg 96%
    11:00 0°C° 1.8 mm 5 m/S 760 mmHg 97%
    12:00 0°C° 1.8 mm 5 m/S 760 mmHg 98%
    13:00 0°C° 0.6 mm 5 m/S 759 mmHg 97%
    14:00 +1°C° 0.6 mm 5 m/S 759 mmHg 97%
    15:00 +1°C° 0.6 mm 5 m/S 759 mmHg 97%
    16:00 +1°C° 0.5 mm 4 m/S 759 mmHg 97%
    17:00 +1°C° 0.5 mm 4 m/S 758 mmHg 97%
    18:00 +2°C° 0.5 mm 3 m/S 758 mmHg 98%
    19:00 +2°C° 0.5 mm 3 m/S 758 mmHg 98%
    20:00 +2°C° 0.5 mm 3 m/S 759 mmHg 98%
    21:00 +2°C° 0.5 mm 3 m/S 759 mmHg 98%
    22:00 +1°C° 0.1 mm 3 m/S 759 mmHg 97%
    23:00 0°C° 0.1 mm 4 m/S 760 mmHg 97%

    21 November, Mittwoch

    Zeit Temperatur Niederschläge Wind Luftdruck Luftfeuchtigkeit
    00:00 0°C° 0.1 mm 4 m/S 760 mmHg 96%
    01:00 0°C° 0 mm 4 m/S 760 mmHg 95%
    02:00 0°C° 0 mm 3 m/S 761 mmHg 94%
    03:00 0°C° 0 mm 3 m/S 761 mmHg 94%
    04:00 0°C° 0 mm 3 m/S 761 mmHg 93%
    05:00 0°C° 0 mm 3 m/S 762 mmHg 92%
    06:00 0°C° 0 mm 3 m/S 762 mmHg 91%
    07:00 0°C° 0 mm 3 m/S 762 mmHg 89%
    08:00 0°C° 0 mm 3 m/S 762 mmHg 88%
    09:00 0°C° 0 mm 3 m/S 762 mmHg 86%
    10:00 0°C° 0 mm 3 m/S 762 mmHg 85%
    11:00 +1°C° 0 mm 3 m/S 762 mmHg 84%
    12:00 +1°C° 0 mm 3 m/S 762 mmHg 83%
    13:00 +1°C° 0 mm 3 m/S 761 mmHg 83%
    14:00 +1°C° 0 mm 3 m/S 761 mmHg 82%
    15:00 +1°C° 0 mm 3 m/S 761 mmHg 82%
    16:00 +1°C° 0.3 mm 3 m/S 761 mmHg 83%
    17:00 -1°C° 0.3 mm 4 m/S 761 mmHg 84%
    18:00 -1°C° 0.3 mm 4 m/S 761 mmHg 85%
    19:00 -1°C° 0.4 mm 4 m/S 761 mmHg 86%
    20:00 -1°C° 0.4 mm 4 m/S 761 mmHg 88%
    21:00 -2°C° 0.4 mm 4 m/S 761 mmHg 89%
    22:00 -2°C° 0.1 mm 4 m/S 761 mmHg 89%
    23:00 -1°C° 0.1 mm 3 m/S 761 mmHg 90%

    22 November, Donnerstag

    Zeit Temperatur Niederschläge Wind Luftdruck Luftfeuchtigkeit
    00:00 -1°C° 0.1 mm 3 m/S 761 mmHg 90%
    01:00 -2°C° 0 mm 3 m/S 761 mmHg 90%
    02:00 -4°C° 0 mm 3 m/S 761 mmHg 90%
    03:00 -4°C° 0 mm 3 m/S 761 mmHg 90%
    04:00 -5°C° 0 mm 3 m/S 761 mmHg 90%
    05:00 -5°C° 0 mm 3 m/S 761 mmHg 90%
    06:00 -4°C° 0 mm 2 m/S 761 mmHg 90%
    07:00 -5°C° 0 mm 3 m/S 761 mmHg 89%
    08:00 -5°C° 0 mm 3 m/S 762 mmHg 88%
    09:00 -4°C° 0 mm 3 m/S 762 mmHg 86%
    10:00 -4°C° 0 mm 3 m/S 762 mmHg 85%
    11:00 -2°C° 0 mm 3 m/S 762 mmHg 83%
    12:00 -1°C° 0 mm 3 m/S 762 mmHg 81%
    13:00 -1°C° 0 mm 3 m/S 761 mmHg 82%
    14:00 -1°C° 0 mm 3 m/S 761 mmHg 82%
    15:00 -1°C° 0 mm 3 m/S 761 mmHg 83%
    16:00 -2°C° 0 mm 3 m/S 761 mmHg 86%
    17:00 -4°C° 0 mm 3 m/S 761 mmHg 89%
    18:00 -3°C° 0 mm 2 m/S 761 mmHg 92%
    19:00 -4°C° 0 mm 2 m/S 761 mmHg 91%
    20:00 -4°C° 0 mm 2 m/S 762 mmHg 90%
    21:00 -4°C° 0 mm 2 m/S 762 mmHg 89%
    22:00 -4°C° 0 mm 2 m/S 762 mmHg 88%
    23:00 -4°C° 0 mm 2 m/S 762 mmHg 88%

    23 November, Freitag

    Zeit Temperatur Niederschläge Wind Luftdruck Luftfeuchtigkeit
    00:00 -6°C° 0 mm 3 m/S 762 mmHg 87%
    01:00 -6°C° 0 mm 3 m/S 762 mmHg 86%
    02:00 -6°C° 0 mm 3 m/S 762 mmHg 86%
    03:00 -6°C° 0 mm 3 m/S 762 mmHg 85%
    04:00 -6°C° 0 mm 3 m/S 763 mmHg 86%
    05:00 -6°C° 0 mm 3 m/S 763 mmHg 86%
    06:00 -6°C° 0 mm 3 m/S 763 mmHg 87%
    07:00 -6°C° 0 mm 3 m/S 764 mmHg 86%
    08:00 -5°C° 0 mm 3 m/S 765 mmHg 85%
    09:00 -5°C° 0 mm 3 m/S 766 mmHg 85%
    10:00 -4°C° 0 mm 3 m/S 766 mmHg 82%
    11:00 -2°C° 0 mm 3 m/S 766 mmHg 79%
    12:00 -1°C° 0 mm 3 m/S 767 mmHg 77%
    13:00 -1°C° 0 mm 3 m/S 767 mmHg 75%
    14:00 -1°C° 0 mm 3 m/S 768 mmHg 73%
    15:00 -1°C° 0 mm 3 m/S 768 mmHg 71%
    16:00 -2°C° 0 mm 2 m/S 768 mmHg 73%
    17:00 -3°C° 0 mm 2 m/S 769 mmHg 74%
    18:00 -4°C° 0 mm 2 m/S 769 mmHg 76%
    19:00 -4°C° 0 mm 2 m/S 770 mmHg 74%
    20:00 -2°C° 0 mm 1 m/S 770 mmHg 72%
    21:00 -2°C° 0 mm 1 m/S 770 mmHg 70%
    22:00 -3°C° 0 mm 1 m/S 771 mmHg 69%
    23:00 -3°C° 0 mm 1 m/S 771 mmHg 67%
    Mehr zeigen